Cape Girardeau, MO

3:55 PM CST on December 12, 2019 (GMT -0600)
Cape Girardeau Regional

Weather History for KCGI - October, 2019

Change the Weather History Date:

Friday, October 25, 2019

  Actual Average Record
Temperature  
Mean Temperature 53 °F 55 °F  
Max Temperature 57 °F 67 °F 84 °F (1963)
Min Temperature 48 °F 43 °F 24 °F (1999)
Degree Days  
Heating Degree Days 12 10  
Month to date heating degree days 170 187  
Since 1 July heating degree days 170 236  
Cooling Degree Days 0 0  
Month to date cooling degree days 51 29  
Year to date cooling degree days 1775 1451  
Growing Degree Days 2 (Base 50)    
Moisture  
Dew Point 46 °F    
Average Humidity 76    
Maximum Humidity 86    
Minimum Humidity 66    
Precipitation  
Precipitation 0.04 in 0.13 in 0.85 in (2002)
Month to date precipitation 3.15 3.02  
Year to date precipitation 50.82 37.35  
Sea Level Pressure  
Sea Level Pressure 30.20 in    
Wind  
Wind Speed 9 mph (NNE)    
Max Wind Speed 15 mph    
Max Gust Speed 22 mph    
Visibility 10 miles    
Events Rain    
T = Trace of Precipitation, MM = Missing Value Source: NWS Daily Summary

Daily Weather History Graph

Daily Weather History Graph

Search for Another Location

Airport or City:

Astronomy

Oct. 25, 2019 Rise Set
Actual Time 7:15 AM CDT 6:08 PM CDT
Civil Twilight 6:48 AM CDT 6:35 PM CDT
Nautical Twilight 6:18 AM CDT 7:05 PM CDT
Astronomical Twilight 5:48 AM CDT 7:35 PM CDT
Moon 4:04 AM CDT (10/25) 5:05 PM CDT (10/25)
Length of Visible Light 11h 46m
Length of Day
10h 53m
Waning Crescent, 9% of the Moon is Illuminated
Oct 25
Waning Crescent
Oct 27
New
Nov 4
First Quarter
Nov 12
Full
Nov 19
Last Quarter

Hourly Weather History & Observations

Time (CDT) Temp. Dew Point Humidity Pressure Visibility Wind Dir Wind Speed Gust Speed Precip Events Conditions
12:53 AM 50.0 °F 45.0 °F 83% 30.28 in 10.0 mi NNE 10.4 mph - N/A   Overcast
1:53 AM 48.9 °F 44.1 °F 83% 30.29 in 10.0 mi North 5.8 mph - N/A   Clear
2:53 AM 48.9 °F 44.1 °F 83% 30.27 in 10.0 mi North 6.9 mph - N/A   Overcast
3:53 AM 48.9 °F 44.1 °F 83% 30.26 in 10.0 mi North 8.1 mph - N/A   Mostly Cloudy
4:53 AM 48.9 °F 44.1 °F 83% 30.25 in 10.0 mi NNE 10.4 mph - N/A   Overcast
5:53 AM 50.0 °F 44.1 °F 80% 30.24 in 10.0 mi NNE 10.4 mph - N/A   Overcast
6:53 AM 50.0 °F 44.1 °F 80% 30.24 in 10.0 mi NNE 8.1 mph - N/A   Overcast
7:53 AM 50.0 °F 44.1 °F 80% 30.26 in 10.0 mi North 10.4 mph - N/A   Overcast
8:53 AM 50.0 °F 45.0 °F 83% 30.28 in 10.0 mi North 8.1 mph - 0.00 in   Overcast
9:53 AM 52.0 °F 45.0 °F 77% 30.27 in 10.0 mi NNE 11.5 mph - N/A   Overcast
10:53 AM 54.0 °F 46.0 °F 75% 30.26 in 10.0 mi NNE 11.5 mph - N/A   Clear
11:53 AM 55.0 °F 45.0 °F 69% 30.24 in 10.0 mi NE 9.2 mph - N/A   Clear
12:53 PM 55.0 °F 46.0 °F 72% 30.21 in 10.0 mi NNE 10.4 mph - N/A   Clear
1:53 PM 55.9 °F 46.0 °F 69% 30.19 in 10.0 mi North 11.5 mph - N/A   Clear
2:53 PM 57.0 °F 46.9 °F 69% 30.17 in 10.0 mi NE 9.2 mph - N/A   Clear
3:53 PM 55.9 °F 46.9 °F 72% 30.18 in 10.0 mi NE 6.9 mph - N/A   Clear
4:53 PM 55.9 °F 46.9 °F 72% 30.16 in 10.0 mi NE 10.4 mph - N/A   Clear
5:53 PM 55.9 °F 46.9 °F 72% 30.15 in 10.0 mi NE 9.2 mph - N/A   Mostly Cloudy
6:53 PM 55.9 °F 46.9 °F 72% 30.16 in 10.0 mi NNE 8.1 mph - N/A   Overcast
7:53 PM 55.9 °F 46.9 °F 72% 30.15 in 10.0 mi NNE 8.1 mph - N/A   Overcast
8:53 PM 55.0 °F 46.9 °F 74% 30.11 in 10.0 mi ENE 10.4 mph 19.6 mph N/A   Overcast
9:53 PM 55.0 °F 46.9 °F 74% 30.10 in 10.0 mi ENE 9.2 mph - N/A   Overcast
10:53 PM 55.0 °F 46.9 °F 74% 30.09 in 10.0 mi NE 12.7 mph - N/A   Overcast
11:53 PM 54.0 °F 48.9 °F 83% 30.04 in 8.0 mi NE 9.2 mph - 0.02 in Rain Light Rain